C/2017 T3 ( ATLAS )

Japanese version
Home page
Updated on October 22, 2018

---------------------------------------------------------------------

* Profile

Discovery Date October 14, 2017
Magnitude 18.3 mag
Discoverer Asteroid Terrestrial-impact Last Alert System (ATLAS) search program

* Pictures

* Orbital Elements

Epoch 2018 July 21.0 TT = JDT 2458320.5
T 2018 July 19.14764 TT                                 MPCW
q   0.8254372            (2000.0)            P               Q
z  +0.0007933      Peri.  246.87427     +0.22871777     -0.60002603
                   Node   230.08578     +0.65987120     -0.48339256
e   0.9993452      Incl.   88.10815     -0.71572214     -0.63741697
From 525 observations 2017 Sept. 11-2018 Sept. 6, mean residual 0".5.
     Nongravitational parameters A1 = +4.05, A2 = +1.1997.

* Finding Charts

* Magnitudes Graph

        m1 = 9.0 + 5 log d + 10.0 log r

---------------------------------------------------------------------

The orbital elements are published on M.P.E.C. 2018-S50.
The charts are made with StellaNavigator Ver.10 (AstroArts).
The magnitudes graphs are made with Comet for Windows.

---------------------------------------------------------------------

Copyright(C) Seiichi Yoshida (comet@aerith.net). All rights reserved.